Location: Brahman Valley
(40.6513°N, 111.8855°W)
Time: 13:00:08
(UTC+00:00)

Vanguard 2 - Pass Details

Date: 19 May 2021
Orbit: 552 x 2937 km, 32.9° (Epoch: 14 June)

Event Time Altitude Azimuth Distance (km) Brightness Sun altitude
Rises 09:30:12 0° 201° (SSW) 3,220 - -22.8°
Reaches altitude 10° 09:33:10 10° 180° (S) 2,565 - -22.5°
Exits shadow 09:35:42 17° 155° (SSE) 2,372 9.7 -22.2°
Maximum altitude 09:37:07 18° 140° (SE) 2,448 9.9 -22.0°
Drops below altitude 10° 09:42:17 10° 102° (ESE) 3,514 11.2 -21.5°
Sets 09:47:23 0° 86° (E) 5,024 12.3 -20.9°
